Location: Cahas Mountain Overlook
(37.0833°N, 80.1000°W)
Time: 05:03:55
(UTC-05:00)

Vanguard 3 - All Passes

Search period start: 05 December 2023 00:00
Search period end: 15 December 2023 00:00
Orbit: 507 x 3241 km, 33.3° (Epoch: 04 December)

Date Brightness Start Highest point End Pass type
(mag) Time Alt. Az. Time Alt. Az. Time Alt. Az.
05 Dec - 02:04:16 10° W 02:10:32 45° SSW 02:14:37 10° SE night (unlit)
05 Dec - 18:05:09 10° S 18:14:17 16° SE 18:21:52 10° ESE visible
05 Dec - 20:14:19 10° SW 20:28:30 38° SSE 20:37:28 10° E visible
05 Dec - 22:29:16 10° WSW 22:41:49 61° S 22:48:46 10° E visible
06 Dec - 00:45:19 10° W 00:53:59 63° S 00:59:00 10° ESE night (unlit)
06 Dec - 03:00:19 10° W 03:04:44 24° SSW 03:08:04 10° SSE night (unlit)
06 Dec - 18:56:09 10° SSW 19:10:01 29° SSE 19:19:55 10° E visible
06 Dec - 21:09:23 10° SW 21:24:01 53° SSE 21:32:29 10° E visible
06 Dec - 23:25:38 10° W 23:36:57 69° S 23:43:10 10° E visible
07 Dec - 01:41:26 10° W 01:48:32 45° SSW 01:52:58 10° SE night (unlit)
07 Dec - 17:39:44 10° S 17:51:17 20° SE 18:00:43 10° ESE visible
07 Dec - 19:49:57 10° SW 20:05:42 43° SSE 20:15:44 10° E visible
07 Dec - 22:05:28 10° WSW 22:19:24 66° S 22:27:06 10° E visible
08 Dec - 00:22:05 10° W 00:31:52 63° SSW 00:37:24 10° ESE night (unlit)
08 Dec - 02:37:44 10° W 02:42:40 24° SW 02:46:15 10° SSE night (unlit)
08 Dec - 16:28:23 10° SSE 16:32:28 11° SE 16:36:22 10° SE daylight
08 Dec - 18:31:33 10° SSW 18:46:59 33° SSE 18:58:09 10° E visible
08 Dec - 20:45:17 10° WSW 21:01:19 58° SSE 21:10:44 10° E visible
08 Dec - 23:02:02 10° W 23:14:40 71° S 23:21:31 10° E visible
09 Dec - 01:18:25 10° W 01:26:28 45° SSW 01:31:19 10° SE night (unlit)
09 Dec - 17:14:47 10° S 17:28:05 23° SE 17:39:06 10° E visible
09 Dec - 19:25:40 10° SW 19:42:43 48° SSE 19:53:50 10° E visible
09 Dec - 21:41:34 10° WSW 21:56:51 69° S 22:05:22 10° E visible
09 Dec - 23:58:40 10° W 00:09:41 64° SSW 00:15:46 10° ESE visible
10 Dec - 02:14:58 10° W 02:20:32 24° SW 02:24:27 10° SSE night (unlit)
10 Dec - 16:01:26 10° SSE 16:09:15 14° SE 16:16:34 10° ESE daylight
10 Dec - 18:07:07 10° SSW 18:23:46 37° SSE 18:36:09 10° E visible
10 Dec - 20:21:12 10° WSW 20:38:28 62° SSE 20:48:51 10° E visible
10 Dec - 22:38:19 10° W 22:52:15 73° S 22:59:50 10° E visible
11 Dec - 00:55:13 10° W 01:04:17 45° SSW 01:09:38 10° SE night (unlit)
11 Dec - 16:50:10 10° S 17:04:44 27° SE 17:17:08 10° E daylight
11 Dec - 19:01:29 10° SW 19:19:35 52° SSE 19:31:48 10° E visible
11 Dec - 21:17:38 10° WSW 21:34:09 72° S 21:43:33 10° E visible
11 Dec - 23:35:06 10° W 23:47:22 64° SSW 23:54:04 10° ESE visible
12 Dec - 01:52:01 10° W 01:58:19 24° SW 02:02:37 10° SSE night (unlit)
12 Dec - 15:35:59 10° SSE 15:45:53 16° SE 15:55:17 10° ESE daylight
12 Dec - 17:42:53 10° SSW 18:00:24 41° SSE 18:13:59 10° E visible
12 Dec - 19:57:09 10° WSW 20:15:26 66° SSE 20:26:51 10° E visible
12 Dec - 22:14:29 10° W 22:29:41 74° S 22:38:04 10° ESE visible
13 Dec - 00:31:50 10° W 00:41:59 44° SSW 00:47:54 10° SE night (unlit)
13 Dec - 16:25:51 10° SSW 16:41:15 30° SE 16:54:53 10° E daylight
13 Dec - 18:37:25 10° SW 18:56:15 56° SSE 19:09:37 10° E visible
13 Dec - 20:53:40 10° WSW 21:11:18 75° S 21:21:38 10° E visible
13 Dec - 23:11:24 10° W 23:24:54 64° SSW 23:32:19 10° ESE visible
14 Dec - 01:28:54 10° W 01:35:59 24° SW 01:40:45 10° SSE night (unlit)
14 Dec - 15:11:14 10° S 15:22:23 18° SE 15:33:21 10° E daylight
14 Dec - 17:18:51 10° SW 17:36:52 45° SSE 17:51:36 10° E visible
14 Dec - 19:33:10 10° WSW 19:52:15 69° SSE 20:04:45 10° E visible
14 Dec - 21:50:35 10° W 22:06:59 74° S 22:16:13 10° ESE visible
